Location: Hilton Head Island
(32.2163°N, 80.7526°W)
Time: 22:40:08
(UTC-04:00)

Vanguard 1 - Pass Details

Date: 18 February 2026
Orbit: 653 x 3818 km, 34.2° (Epoch: 13 March)

Event Time Altitude Azimuth Distance (km) Brightness Sun altitude
Rises 14:37:49 0° 235° (SW) 3,999 14.1 37.7°
Reaches altitude 10° 14:40:03 10° 232° (SW) 3,298 14.0 37.4°
Maximum altitude 14:48:33 66° 151° (SSE) 2,054 12.4 36.2°
Drops below altitude 10° 15:04:43 10° 74° (ENE) 5,930 13.7 33.9°
Sets 15:10:18 0° 73° (ENE) 7,351 14.1 33.0°
